TIANWANG 1A (TW-1A)
1 40928U 15051D   19285.86197109  .00002906  00000-0  71553-4 0  9993
2 40928  97.1374 314.5762 0011430  20.8653 103.8776 15.41330758227063
LAPAN A2
1 40931U 15052B   19284.50991012  .00000141  00000-0 -69845-4 0  9994
2 40931   6.0059 317.7712 0016039 338.4638  21.4786 14.76613481218269
LQSAT
1 40958U 15057A   19285.78487106 +.00000023 +00000-0 +11241-4 0  9998
2 40958 097.8878 351.7787 0017197 225.5965 134.3836 14.73091502215909
CHUBUSAT 2
1 41338U 16012B   19285.86550395 +.00000301 +00000-0 +16677-4 0  9990
2 41338 031.0025 126.4513 0013790 174.8155 185.2625 15.00191285200378
CHUBUSAT 3
1 41339U 16012C   19285.88802471 +.00000299 +00000-0 +16410-4 0  9999
2 41339 031.0096 124.2538 0013506 182.7370 177.3192 15.00363736200375
OUFTI-1
1 41458U 16025C   19285.80185935 +.00001293 +00000-0 +69652-4 0  9997
2 41458 098.1008 018.5505 0164903 327.0432 032.0596 15.06076129190044
E-STAR-2
1 41459U 16025D   19285.84650690  .00001194  00000-0  65158-4 0  9994
2 41459  98.1004  18.1914 0165942 328.4490  30.6859 15.05702162190020
AAUSAT 4
1 41460U 16025E   19285.80688575 +.00001599 +00000-0 +83614-4 0  9991
2 41460 098.0952 019.6920 0156328 319.9376 039.0396 15.07678712190161
NUSAT 1
1 41557U 16033B   19285.87784012 +.00001088 +00000-0 +43253-4 0  9995
2 41557 097.4151 012.6972 0012276 244.1658 115.8316 15.27433366187827
BEESAT 4
1 41619U 16040W   19285.85588937 +.00001141 +00000-0 +50904-4 0  9999
2 41619 097.3557 345.8525 0010605 343.4809 016.6081 15.23360455171548
PRATHAM
1 41783U 16059A   19285.73133961  .00000052  00000-0  19246-4 0  9995
2 41783  98.0549 342.6741 0033946  21.3957 338.8655 14.63013314162518
ALSAT 1N
1 41789U 16059G   19285.89423706 +.00000035 +00000-0 +15758-4 0  9992
2 41789 098.0576 345.0841 0028522 010.1960 349.9805 14.64266590162658
NAYIF 1
1 42017U 17008BX  19285.13325285 +.00001478 +00000-0 +60661-4 0  9997
2 42017 097.3923 350.9842 0007769 116.5808 243.6227 15.25781252147521
MAX VALIER SAT
1 42778U 17036P   19285.82528770  .00000891  00000-0  41774-4 0  9994
2 42778  97.3421 340.8629 0012708 169.1195 191.0319 15.22177206127904
